Flag for U.S.A. Weather past 2 weeks in Elizabeth, New Jersey, U.S.A.

Now
75 °F

Passing clouds.


Feels Like: 77 °F
Forecast: 75 / 89 °F
Wind: 6 mph from Southwest

Location: Newark International Airport

Current Time: Aug 1, 2015 at 2:47:21 AM

Latest Report: Aug 1, 2015 at 1:51 AM


Visibility: 10 mi

Pressure: 29.81 "Hg

Humidity: 60%

Dew point: 60 °F

Location of ElizabethLocation

Historic Weather in Elizabeth — Graph

°F

Elizabeth temperature yesterday

Maximum temperature yesterday: 92 °F (at 2:51 PM)
Minimum temperature yesterday: 73 °F (at 5:51 AM)
Average temperature yesterday: 83 °F

Past Weeks' High & Low Weather Summary

 TemperatureHumidityPressure
High98 °F (Jul 19, 3:51 PM)94% (Jul 31, 1:51 AM)30.12 "Hg (Jul 31, 1:51 AM)
Low63 °F (Jul 17, 5:51 AM)22% (Jul 24, 3:51 PM)29.57 "Hg (Jul 21, 5:51 PM)
Average81 °F56%29.88 "Hg
* Reported Jul 17 12:51 AM — Aug 1 12:51 AM, Elizabeth, Weather by CustomWeather, © 2015

Note: Actual official high and low records may vary slightly from our data, if they occured in-between our weather recording intervals... More about our weather records

Advertising

Elizabeth weather history for previous 24 hours

 ConditionsComfort  
Time TempWeatherWind HumidityBarometerVisibility
12:51 AM
Sat, Aug 1
78 °FClear.7 mph52%29.83 "Hg10 mi
11:51 PM
Fri, Jul 31
77 °FClear.6 mph54%29.83 "Hg10 mi
10:51 PM82 °FClear.9 mph44%29.83 "Hg10 mi
9:51 PM84 °FPassing clouds.7 mph38%29.82 "Hg10 mi
8:51 PM85 °FPassing clouds.5 mph36%29.80 "Hg10 mi
7:51 PM87 °FPassing clouds.10 mph31%29.79 "Hg10 mi
6:51 PM89 °FPassing clouds.13 mph25%29.79 "Hg10 mi
5:51 PM91 °FPassing clouds.16 mph24%29.80 "Hg10 mi
4:51 PM91 °FPassing clouds.6 mph28%29.81 "Hg10 mi
3:51 PM90 °FPassing clouds.9 mph32%29.81 "Hg10 mi
2:51 PM92 °FPassing clouds.10 mph29%29.83 "Hg10 mi
1:51 PM91 °FScattered clouds.12 mph30%29.84 "Hg10 mi
12:51 PM90 °FPassing clouds.8 mph29%29.85 "Hg10 mi
11:51 AM89 °FPassing clouds.13 mph34%29.87 "Hg10 mi
10:51 AM87 °FPassing clouds.8 mph37%29.87 "Hg10 mi
9:51 AM83 °FSunny.5 mph46%29.88 "Hg10 mi
8:51 AM80 °FPassing clouds.5 mph52%29.88 "Hg10 mi
7:51 AM77 °FScattered clouds.5 mph58%29.88 "Hg10 mi
6:51 AM74 °FPassing clouds.6 mph67%29.86 "Hg10 mi
5:51 AM73 °FPassing clouds.7 mph66%29.85 "Hg10 mi
4:51 AM75 °FPassing clouds.7 mph66%29.85 "Hg10 mi
3:51 AM76 °FPassing clouds.8 mph69%29.83 "Hg10 mi
2:51 AM76 °FPassing clouds.5 mph85%29.83 "Hg10 mi
Weather by CustomWeather, © 2015

See weather overviewHow to use our weather pages